Regional Weather Roundup
Issued by NWS

Home | Current Version | Previous Version | Text Only | Print | Product List | Glossary Off
Versions: 1 2 3 4 5 6 7 8 9 10 11 12 13 14 15 16 17 18 19 20 21 22 23 24 25 26 27 28 29 30 31 32 33 34 35 36 37 38 39 40 41 42 43 44 45 46 47 48 49 50

000
ASUS45 KPSR 030610
RWRAZ

ARIZONA HOURLY REGIONAL WEATHER ROUNDUP
NATIONAL WEATHER SERVICE PHOENIX AZ
1100 PM MST TUE JUN 02 2015

NOTE: FAIR INDICATES FEW OR NO CLOUDS BELOW 12,000 FEET WITH NO
SIGNIFICANT WEATHER AND/OR OBSTRUCTIONS TO VISIBILITY.

AZZ001>003-036-030700-
NORTHWEST ARIZONA

CITY           SKY/WX    TMP DP  RH WIND       PRES   REMARKS
BULLHEAD CITY  CLEAR     86  23  10 CALM      29.72S
KINGMAN        CLEAR     69  19  15 S12       29.91F
6HR MIN TEMP:  67; 6HR MAX TEMP:  89;

$$

AZZ004>008-015-016-018-030700-
NORTH CENTRAL ARIZONA

CITY           SKY/WX    TMP DP  RH WIND       PRES   REMARKS
GRAND CANYON   CLEAR     41  18  39 E3        30.13S
6HR MIN TEMP:  39; 6HR MAX TEMP:  78;

WILLIAMS       CLEAR     57  14  18 S10       30.20
PRESCOTT       CLEAR     63  19  18 SW9       30.04F
6HR MIN TEMP:  62; 6HR MAX TEMP:  83;

FLAGSTAFF      CLEAR     47  21  35 SW5       30.16F
6HR MIN TEMP:  47; 6HR MAX TEMP:  73;

PAYSON         CLEAR     68  18  14 CALM      30.08F
PAGE           CLEAR     77  17  10 SW5       29.91S
6HR MIN TEMP:  77; 6HR MAX TEMP:  93;

$$

AZZ009>014-017-030700-
NORTHEAST ARIZONA

CITY           SKY/WX    TMP DP  RH WIND       PRES   REMARKS
WINSLOW        CLEAR     59  24  26 S5        30.04F
6HR MIN TEMP:  59; 6HR MAX TEMP:  88;

SAINT JOHNS    CLEAR     66  21  18 SW10      30.09S
6HR MIN TEMP:  65; 6HR MAX TEMP:  87;

WINDOW ROCK    CLEAR     56  21  25 SW3       30.15S
6HR MIN TEMP:  54; 6HR MAX TEMP:  82;

SHOW LOW       CLEAR     57  19  23 S10       30.16S
$$

AZZ023-030700-
GREATER PHOENIX AREA

CITY           SKY/WX    TMP DP  RH WIND       PRES   REMARKS
PHOENIX        CLEAR     90  18   7 W10       29.78S
6HR MIN TEMP:  89; 6HR MAX TEMP: 102;

BUCKEYE          N/A     75  18  11 NW5       29.80S
LUKE AFB       CLEAR     84  22  10 SW5       29.78S
6HR MIN TEMP:  84; 6HR MAX TEMP: 101;

DEER VALLEY    CLEAR     83  18   9 S5        29.81S
6HR MIN TEMP:  82; 6HR MAX TEMP:  98;

SCOTTSDALE     CLEAR     84  21  10 CALM      29.83R
6HR MIN TEMP:  84; 6HR MAX TEMP:  99;

MESA-GATEWAY   CLEAR     81  30  16 CALM      29.83R
$$

AZZ027-028-030700-
SOUTHWEST MARICOPA COUNTY AND PINAL COUNTY

CITY           SKY/WX    TMP DP  RH WIND       PRES   REMARKS
CASA GRANDE    CLEAR     81  25  12 CALM      29.82S
6HR MIN TEMP:  81; 6HR MAX TEMP: 100;

GILA BEND      FAIR      81  16   9 S10       29.78S
6HR MIN TEMP:  80; 6HR MAX TEMP: 102;

$$

AZZ503-504-507>509-030700-
SOUTHEAST ARIZONA

CITY           SKY/WX    TMP DP  RH WIND       PRES   REMARKS
TUCSON         CLEAR     84  25  11 S7        29.95R
6HR MIN TEMP:  84; 6HR MAX TEMP: 100;

DAVIS-MONTHAN  CLEAR     81  26  13 SW6       29.94R
6HR MIN TEMP:  81; 6HR MAX TEMP:  99;

NOGALES        CLEAR     74  24  15 SE6       30.05S
6HR MIN TEMP:  73; 6HR MAX TEMP:  93; 6HR PCP: TRACE;

SIERRA VISTA   CLEAR     76  17  11 SW16      30.08F
6HR MIN TEMP:  74; 6HR MAX TEMP:  89;

DOUGLAS        CLEAR     73  22  14 NW3       30.05R
6HR MIN TEMP:  71; 6HR MAX TEMP:  93;

SAFFORD        CLEAR     77  29  17 NW10      29.91R
6HR MIN TEMP:  77; 6HR MAX TEMP: 101;

$$

AZZ020-021-025-026-031-030700-
SOUTHWEST ARIZONA

CITY           SKY/WX    TMP DP  RH WIND       PRES   REMARKS
YUMA           CLEAR     83  26  12 NW10      29.77S
6HR MIN TEMP:  83; 6HR MAX TEMP: 101;

$$

CAZ031-033-041-043-047-048-061-030700-
SOUTHERN CALIFORNIA

CITY           SKY/WX    TMP DP  RH WIND       PRES   REMARKS
DOWNTOWN L.A.  PTCLDY    63  57  81 CALM      29.95S
6HR MIN TEMP:  63; 6HR MAX TEMP:  73;

L.A. AIRPORT   PTCLDY    61  58  90 CALM      29.96S
6HR MIN TEMP:  61; 6HR MAX TEMP:  67;

SAN DIEGO      MOCLDY    63  55  75 N5        29.99R
6HR MIN TEMP:  62; 6HR MAX TEMP:  69;

BURBANK        CLEAR     64  56  75 SE7       29.95R
6HR MIN TEMP:  64; 6HR MAX TEMP:  77;

ONTARIO        CLEAR     62  55  77 W8        29.95R
6HR MIN TEMP:  62; 6HR MAX TEMP:  80;

RIVERSIDE      CLEAR     63  56  78 W3        29.96R
6HR MIN TEMP:  63; 6HR MAX TEMP:  82;

PALM SPRINGS   CLEAR     84  41  21 NW13      29.77S
6HR MIN TEMP:  83; 6HR MAX TEMP: 100;

EL CENTRO NAS  CLEAR     80  27  14 W17       29.79R
6HR MIN TEMP:  80; 6HR MAX TEMP:  98;

IMPERIAL       LGT RAIN  79  31  17 W18       29.76R
6HR MIN TEMP:  79; 6HR MAX TEMP:  97; 6HR PCP: TRACE;

BLYTHE         CLEAR     83  36  18 SW9       29.74S
6HR MIN TEMP:  83; 6HR MAX TEMP: 101;

NEEDLES        CLEAR     89  20   8 SW12      29.73S
6HR MIN TEMP:  87; 6HR MAX TEMP: 101;

$$

NVZ020-UTZ003-030700-
SOUTHERN NEVADA-UTAH

CITY           SKY/WX    TMP DP  RH WIND       PRES   REMARKS
LAS VEGAS      CLEAR     83  23  11 S13       29.73F
6HR MIN TEMP:  83; 6HR MAX TEMP:  95;

SALT LAKE CITY PTCLDY    66  49  54 S3        29.90F
6HR MIN TEMP:  65; 6HR MAX TEMP:  80;

$$

NMZ009-TXZ055-030700-
NEW MEXICO-WEST TEXAS

CITY           SKY/WX    TMP DP  RH WIND       PRES   REMARKS
ALBUQUERQUE    CLEAR     73  29  19 W5        30.02S
6HR MIN TEMP:  69; 6HR MAX TEMP:  89;

EL PASO        CLEAR     82  19   9 SW12      29.94S
6HR MIN TEMP:  80; 6HR MAX TEMP:  98;

$$


........................KEY........................
SKY/WX - SKY CONDITION/WEATHER
TMP    - TEMPERATURE IN FAHRENHEIT
DP     - DEW POINT IN FAHRENHEIT
RH     - RELATIVE HUMIDITY IN PERCENT
WIND   - DIRECTION AND SPEED IN MILES PER HOUR (MPH)
VRB    - VARIABLE WIND DIRECTION
PRES   - MEAN SEA LEVEL PRESSURE IN INCHES OF MERCURY
         F - FALLING PRESSURE   R - RISING PRESSURE
         S - STEADY PRESSURE
VSB    - VISIBILITY IN MILES
HX     - HEAT INDEX IN FAHRENHEIT
WCI    - WIND CHILL INDEX IN FAHRENHEIT
TC     - TEMPERATURE IN CELSIUS WHICH IS ALSO KNOWN AS
         TEMPERATURE IN CENTIGRADE
AFB    - AIR FORCE BASE
         LUKE AFB IS LUKE AIR FORCE BASE
         DAVIS-MONTHAN IS DAVIS-MONTHAN AIR FORCE BASE
NAS    - NAVAL AIR STATION
         EL CENTRO NAS IS EL CENTRO NAVAL AIR STATION
N/A    - NOT AVAILABLE




USA.gov is the U.S. government's official web portal to all federal, state and local government web resources and services.